User: anonymous   Login
Location: Pasadena, ca
(34.1243°N, 118.1037°W)
Time: 08:17:21
(UTC-07:00)
Language:

Envisat - Orbit

View from above orbital plane
View from above orbital plane
View from above satellite
View from above satellite

Ground track
Ground track

The orbit data is extracted from the following two-line orbital elements,

1 27386U 02009A   18173.17324464 -.00000007  00000-0  11118-4 0  9992
2 27386  98.1836 206.9994 0001248  94.5412 307.4427 14.37924362854243
Epoch (UTC): 22 June 2018 04:09:28
Eccentricity: 0.0001248
inclination: 98.1836°
perigee height: 764 km
apogee height: 766 km
right ascension of ascending node: 206.9994°
argument of perigee: 94.5412°
revolutions per day: 14.37924362
mean anomaly at epoch: 307.4427°
orbit number at epoch: 85424

The dashed part of the orbit path shows where the satellite is in the earth's shadow,  

DLR